Petersburg, AK

5:47 AM AKDT on August 19, 2017 (GMT -0800)
Johnson Petersburg

Weather History for PAPG - June, 2013

Change the Weather History Date:

Sunday, June 23, 2013

  Actual Average Record
Temperature  
Mean Temperature 58 °F -  
Max Temperature 64 °F 59 °F 78 °F (2004)
Min Temperature 53 °F 46 °F 41 °F (2000)
Degree Days  
Heating Degree Days 6    
Growing Degree Days 8 (Base 50)    
Moisture  
Dew Point 51 °F    
Average Humidity 76    
Maximum Humidity 94    
Minimum Humidity 64    
Precipitation  
Precipitation 0.00 in - - ()
Sea Level Pressure  
Sea Level Pressure 29.76 in    
Wind  
Wind Speed 5 mph (ENE)    
Max Wind Speed 8 mph    
Max Gust Speed -    
Visibility 10 miles    
Events      
Averages and records for this station are not official NWS values.
T = Trace of Precipitation, MM = Missing Value Source: NWS Daily Summary

Daily Weather History Graph

Daily Weather History Graph

Search for Another Location

Airport or City:

Trip Planner

Search our weather history database for the weather conditions in past years. The results will help you decide how hot, cold, wet, or windy it might be!

Date:

Astronomy

Jun. 23, 2013 Rise Set
Actual Time 3:59 AM AKDT 9:48 PM AKDT
Civil Twilight 2:52 AM AKDT 10:55 PM AKDT
Nautical Twilight 1:26 AM AKDT 12:21 AM AKDT
Astronomical Twilight Sun does not set Sun does not set
Moon 9:43 PM AKDT (6/23) 4:43 AM AKDT (6/23)
Length of Visible Light 20h 03m
Length of Day
17h 49m
Full, 100% of the Moon is Illuminated
Jun 23
Full
Jun 29
Last Quarter
Jul 7
New
Jul 15
First Quarter
Jul 22
Full

Hourly Weather History & Observations

Time (AKDT) Temp. Dew Point Humidity Pressure Visibility Wind Dir Wind Speed Gust Speed Precip Events Conditions
12:36 AM 53.6 °F 51.8 °F 94% 29.92 in 10.0 mi ENE 4.6 mph - N/A   Overcast
12:56 AM 53.6 °F 51.8 °F 94% 29.92 in 10.0 mi East 5.8 mph - N/A   Overcast
1:16 AM 53.6 °F 51.8 °F 94% 29.91 in 10.0 mi ESE 3.5 mph - N/A   Overcast
3:36 AM 53.6 °F 48.2 °F 82% 29.87 in 10.0 mi East 3.5 mph - N/A   Overcast
3:56 AM 53.6 °F 50.0 °F 88% 29.87 in 10.0 mi East 3.5 mph - N/A   Overcast
4:16 AM 53.6 °F 50.0 °F 88% 29.87 in 10.0 mi East 3.5 mph - N/A   Overcast
4:36 AM 53.6 °F 50.0 °F 88% 29.86 in 10.0 mi Calm Calm - N/A   Overcast
5:16 AM 53.6 °F 50.0 °F 88% 29.85 in 10.0 mi Calm Calm - N/A   Overcast
6:16 AM 53.6 °F 50.0 °F 88% 29.84 in 10.0 mi ENE 3.5 mph - N/A   Overcast
7:56 AM 55.4 °F 51.8 °F 88% 29.82 in 10.0 mi NE 4.6 mph - N/A   Overcast
8:16 AM 55.4 °F 51.8 °F 88% 29.81 in 10.0 mi East 4.6 mph - N/A   Overcast
8:36 AM 55.4 °F 51.8 °F 88% 29.81 in 10.0 mi ENE 5.8 mph - N/A   Overcast
9:36 AM 59.0 °F 50.0 °F 72% 29.79 in 10.0 mi ENE 4.6 mph - N/A   Overcast
9:56 AM 60.8 °F 50.0 °F 68% 29.79 in 10.0 mi East 3.5 mph - N/A   Overcast
10:16 AM 62.6 °F 51.8 °F 68% 29.78 in 10.0 mi ENE 4.6 mph - N/A   Overcast
10:36 AM 60.8 °F 50.0 °F 68% 29.78 in 10.0 mi East 5.8 mph - N/A   Overcast
10:56 AM 60.8 °F 51.8 °F 72% 29.77 in 10.0 mi NE 5.8 mph - N/A   Mostly Cloudy
11:16 AM 60.8 °F 50.0 °F 68% 29.77 in 10.0 mi NE 6.9 mph - N/A   Mostly Cloudy
11:36 AM 62.6 °F 51.8 °F 68% 29.77 in 10.0 mi NE 6.9 mph - N/A   Mostly Cloudy
11:56 AM 62.6 °F 51.8 °F 68% 29.76 in 10.0 mi ENE 5.8 mph - N/A   Mostly Cloudy
12:56 PM 62.6 °F 51.8 °F 68% 29.75 in 10.0 mi East 4.6 mph - N/A   Mostly Cloudy
1:16 PM 62.6 °F 53.6 °F 72% 29.75 in 10.0 mi ENE 4.6 mph - N/A   Mostly Cloudy
1:36 PM 62.6 °F 51.8 °F 68% 29.74 in 10.0 mi East 5.8 mph - N/A   Mostly Cloudy
1:56 PM 64.4 °F 53.6 °F 68% 29.74 in 10.0 mi ENE 5.8 mph - N/A   Mostly Cloudy
2:56 PM 62.6 °F 53.6 °F 72% 29.72 in 10.0 mi NE 6.9 mph - N/A   Mostly Cloudy
3:56 PM 64.4 °F 53.6 °F 68% 29.70 in 10.0 mi NE 4.6 mph - N/A   Scattered Clouds
4:16 PM 64.4 °F 51.8 °F 64% 29.69 in 10.0 mi NE 8.1 mph - N/A   Scattered Clouds
4:36 PM 64.4 °F 51.8 °F 64% 29.68 in 10.0 mi NE 6.9 mph - N/A   Scattered Clouds
5:56 PM 64.4 °F 51.8 °F 64% 29.65 in 10.0 mi NE 6.9 mph - N/A   Partly Cloudy
6:16 PM 64.4 °F 51.8 °F 64% 29.65 in 10.0 mi ENE 4.6 mph - N/A   Partly Cloudy
6:56 PM 64.4 °F 51.8 °F 64% 29.64 in 10.0 mi East 5.8 mph - N/A   Partly Cloudy
7:36 PM 60.8 °F 50.0 °F 68% 29.64 in 10.0 mi ENE 5.8 mph - N/A   Partly Cloudy
9:56 PM 57.2 °F 50.0 °F 77% 29.63 in 10.0 mi East 3.5 mph - N/A   Clear
10:16 PM 57.2 °F 50.0 °F 77% 29.63 in 10.0 mi East 3.5 mph - N/A   Clear
10:36 PM 57.2 °F 48.2 °F 72% 29.63 in 10.0 mi SE 3.5 mph - N/A   Clear
11:16 PM 57.2 °F 50.0 °F 77% 29.62 in 10.0 mi SE 6.9 mph - N/A   Clear